Terminal Aerodrome Forecast
Issued by NWS El Paso, TX

Home | Current Version | Previous Version | Text Only | Print | Product List | Glossary On
Versions: 1 2 3 4 5 6 7 8 9 10 11 12
000
FTUS44 KEPZ 232320
TAFELP
TAF
KELP 232320Z 2400/2424 VRB03KT P6SM FEW250
     FM240100 17004KT P6SM FEW250
     FM241000 28005KT P6SM FEW250=

USA.gov is the U.S. government's official web portal to all federal, state and local government web resources and services.